Regional Weather Roundup
Issued by NWS

Home | Current Version | Previous Version | Graphics & Text | Print | Product List | Glossary On
Versions: 1 2 3 4 5 6 7 8 9 10 11 12 13 14 15 16 17 18 19 20 21 22 23 24 25 26 27 28 29 30 31 32 33 34 35 36 37 38 39 40 41 42 43 44 45 46 47 48 49 50
000
ASUS44 KMEG 181310
RWRTN
TENNESSEE HOURLY STATE WEATHER ROUNDUP
NATIONAL WEATHER SERVICE MEMPHIS TN
800 AM CDT WED OCT 18 2017

TNZ002-004-019-021-049-052-054-088>092-181400-
WEST TENNESSEE

CITY           SKY/WX    TMP DP  RH WIND       PRES   REMARKS
MEMPHIS INTL   CLEAR     54  47  77 SE7       30.25R
NWS MEMPHIS      N/A     47 N/A N/A MISG        N/A
JACKSON        CLEAR     44  43  96 CALM      30.28R
SOMERVILLE     CLEAR     45  45 100 CALM      30.25S
COVINGTON      CLEAR     43  43 100 CALM      30.27R
UNION CITY     CLEAR     43  43 100 CALM      30.26R
BOLIVAR        CLEAR     41  39  93 CALM      30.27R
PARIS          SUNNY     48  45  87 SE3       30.27R
HUNTINGDON     SUNNY     46  45  93 CALM      30.27R
LEXINGTON      SUNNY     39  39 100 CALM      30.29R
SELMER         SUNNY     45  43  93 CALM      30.29R
SAVANNAH       SUNNY     41  41 100 CALM      30.29R
$$

TNZ008-025-027-028-033-062-065-066-181400-
NORTH MIDDLE TENNESSEE

CITY           SKY/WX    TMP DP  RH WIND       PRES   REMARKS
NASHVILLE      MOSUNNY   45  42  89 S3        30.32R
PORTLAND       SUNNY     46  46 100 S6        30.31R FOG
CLARKSVILLE    SUNNY     45  43  93 SE3       30.30R
SMYRNA         SUNNY     42  42 100 CALM      30.34R
COOKEVILLE     SUNNY     43  43 100 CALM      30.32R
GALLATIN       SUNNY     43  41  93 CALM      30.35R
CROSSVILLE     CLOUDY    41  40  96 CALM      30.34R
$$

TNZ061-075-076-078-094-096-097-181400-
SOUTH MIDDLE TENNESSEE

CITY           SKY/WX    TMP DP  RH WIND       PRES   REMARKS
FAYETTEVILLE   SUNNY     46  46 100 CALM      30.31R
TULLAHOMA        N/A     41  37  87 CALM      30.32R
WINCHESTER     SUNNY     50  45  81 CALM        N/A
COLUMBIA       FOG       41  39  93 CALM      30.30R VSB 1/2
SHELBYVILLE    SUNNY     45  45 100 E3        30.32R FOG
$$

TNZ017-018-042-046-047-181400-
NORTHEAST TENNESSEE

CITY           SKY/WX    TMP DP  RH WIND       PRES   REMARKS
TRI CITIES     MOSUNNY   44  41  89 CALM      30.37R
ELIZABETHTON   SUNNY     45  41  87 CALM      30.38R
$$

TNZ012-013-036-069-073-074-181400-
CENTRAL EAST TENNESSEE

CITY           SKY/WX    TMP DP  RH WIND       PRES   REMARKS
KNOXVILLE      PTSUNNY   45  45 100 NE3       30.35R
OAK RIDGE      FOG       45  45 100 CALM      30.37R VSB 1/2
DOWNTOWN KNOXV CLOUDY    45  45 100 CALM      30.37R
GATLINBURG     SUNNY     41  41 100 CALM      30.37R
MORRISTOWN     SUNNY     46  41  81 E3        30.36R
JACKSBORO      FOG       41  41 100 CALM      30.40R VSB 1/4
$$

TNZ083-085-099-181400-
SOUTHEAST TENNESSEE

CITY           SKY/WX    TMP DP  RH WIND       PRES   REMARKS
CHATTANOOGA    MOSUNNY   47  43  86 CALM      30.35R
DAYTON         FOG       45  45 100 CALM      30.35R VSB 0
$$

SKY/WX REPORTED AS FAIR MEANS FEW OR NO CLOUDS BELOW
12 THOUSAND FEET.





USA.gov is the U.S. government's official web portal to all federal, state and local government web resources and services.